STARLINK-31965 (59888 NORAD) Tracking and Keplerian Element Data

This shows tracking and keplerian element data for the satellite.

Feedback or suggestion? Click here.




ElementValue
Catalog59888
NameSTARLINK-31965
Epoch Orbit281
Epoch Day160.16667824
Epoch Year2024
RAAN174.3939
Inclination43.0038
Eccentricity0.0001589
Argument of Perigee258.6926
Mean Anonmoly321.6101
Mean Motion15.79990453
Decay Rate-0.0097565
L11 59888U 24100D 24160.16667824 -.00975650 00000+0 -56964-2 0 9993
L22 59888 43.0038 174.3939 0001589 258.6926 321.6101 15.79990453 2812



Live tracking and technical data element details for STARLINK-31965 (NORAD 59888). STARLINK-31965 can be tracked NOW for your location showing map with azimuth and elevation plus other details from your city location.







IsCatalogInMostPopularTable: catalog: 59888, numindb: 6
Update: records affected: 1



GetName: 59888 STARLINK-31965

Hit Count: updated at: Tue, 16 Jul 2024 02:44:55 GMT